User: anonymous
Location: Unspecified
(0.0000°N, 0.0000°E)
Time: 10:14:47
(UTC+02:00)
Language:

Cosmos 494 Rocket - Orbit

View from above orbital plane
View from above orbital plane
View from above satellite
View from above satellite

Ground track
Ground track

The orbit data is extracted from the following two-line orbital elements,

1 06061U 72043B   14232.34564764  .00000058  00000-0  26628-4 0  5021
2 06061 074.0568 285.5216 0021286 313.6774 118.7978 14.40167447209756
Epoch (UTC): 20 August 2014 08:17:43
Eccentricity: 0.0021286
inclination: 74.0568°
perigee height: 743 km
apogee height: 773 km
right ascension of ascending node: 285.5216°
argument of perigee: 313.6774°
revolutions per day: 14.40167447
mean anomaly at epoch: 118.7978°
orbit number at epoch: 20975

The dashed part of the orbit path shows where the satellite is in the earth's shadow,  

DLR